• In Slovakia
  • List of Countries
  • For 7 days
  • Water Temperature
  • Satellite Maps
  • Weather Map
  • Weather Widgets
  • user-avatar
    Login

    Hourly Weather Etchmiadzin

    Today, 18 October, Thursday

    Time Temperature Precipitation Wind Pressure Humidity
    00:00 +14°C° 0 mm 1 mps 689 mmHg 71%
    01:00 +14°C° 0 mm 1 mps 689 mmHg 72%
    02:00 +13°C° 0 mm 1 mps 689 mmHg 74%
    03:00 +13°C° 0 mm 1 mps 689 mmHg 75%
    04:00 +12°C° 0 mm 0 mps 689 mmHg 75%
    05:00 +11°C° 0 mm 0 mps 688 mmHg 75%
    06:00 +11°C° 0 mm 0 mps 688 mmHg 75%
    07:00 +13°C° 0 mm 0 mps 689 mmHg 66%
    08:00 +18°C° 0 mm 1 mps 689 mmHg 56%
    09:00 +20°C° 0 mm 1 mps 690 mmHg 47%
    10:00 +21°C° 0 mm 1 mps 689 mmHg 42%
    11:00 +22°C° 0 mm 1 mps 689 mmHg 37%
    12:00 +23°C° 0 mm 2 mps 689 mmHg 32%
    13:00 +24°C° 0 mm 1 mps 689 mmHg 31%
    14:00 +24°C° 0 mm 1 mps 688 mmHg 29%
    15:00 +24°C° 0 mm 1 mps 688 mmHg 28%
    16:00 +22°C° 0 mm 1 mps 688 mmHg 33%
    17:00 +20°C° 0 mm 1 mps 688 mmHg 37%
    18:00 +16°C° 0 mm 0 mps 687 mmHg 42%
    19:00 +15°C° 0 mm 0 mps 688 mmHg 45%
    20:00 +16°C° 0 mm 1 mps 688 mmHg 47%
    21:00 +15°C° 0 mm 1 mps 688 mmHg 49%
    22:00 +15°C° 0 mm 1 mps 688 mmHg 53%
    23:00 +14°C° 0 mm 1 mps 688 mmHg 56%

    Tomorrow, 19 October, Friday

    Time Temperature Precipitation Wind Pressure Humidity
    00:00 +14°C° 0 mm 1 mps 688 mmHg 59%
    01:00 +14°C° 0 mm 1 mps 688 mmHg 61%
    02:00 +13°C° 0 mm 1 mps 688 mmHg 64%
    03:00 +13°C° 0 mm 1 mps 688 mmHg 67%
    04:00 +12°C° 0 mm 1 mps 688 mmHg 68%
    05:00 +12°C° 0 mm 1 mps 688 mmHg 68%
    06:00 +11°C° 0 mm 0 mps 688 mmHg 69%
    07:00 +14°C° 0 mm 1 mps 689 mmHg 59%
    08:00 +16°C° 0 mm 1 mps 689 mmHg 48%
    09:00 +20°C° 0 mm 1 mps 690 mmHg 38%
    10:00 +21°C° 0 mm 1 mps 689 mmHg 35%
    11:00 +22°C° 0 mm 1 mps 689 mmHg 31%
    12:00 +23°C° 0 mm 2 mps 689 mmHg 28%
    13:00 +24°C° 0 mm 2 mps 689 mmHg 28%
    14:00 +24°C° 0 mm 2 mps 688 mmHg 28%
    15:00 +24°C° 0 mm 2 mps 688 mmHg 27%
    16:00 +21°C° 0 mm 2 mps 688 mmHg 32%
    17:00 +20°C° 0 mm 1 mps 688 mmHg 37%
    18:00 +18°C° 0 mm 1 mps 687 mmHg 42%
    19:00 +18°C° 0 mm 1 mps 688 mmHg 44%
    20:00 +16°C° 0 mm 1 mps 688 mmHg 46%
    21:00 +16°C° 0 mm 1 mps 688 mmHg 47%
    22:00 +15°C° 0 mm 1 mps 688 mmHg 48%
    23:00 +15°C° 0 mm 1 mps 688 mmHg 49%

    Day after tomorrow, 20 October, Saturday

    Time Temperature Precipitation Wind Pressure Humidity
    00:00 +15°C° 0 mm 1 mps 688 mmHg 50%
    01:00 +14°C° 0 mm 1 mps 688 mmHg 50%
    02:00 +14°C° 0 mm 1 mps 687 mmHg 50%
    03:00 +14°C° 0 mm 1 mps 687 mmHg 50%
    04:00 +14°C° 0.1 mm 1 mps 687 mmHg 51%
    05:00 +13°C° 0.1 mm 1 mps 687 mmHg 52%
    06:00 +13°C° 0.1 mm 1 mps 687 mmHg 54%
    07:00 +15°C° 0.1 mm 1 mps 687 mmHg 50%
    08:00 +18°C° 0.1 mm 1 mps 688 mmHg 46%
    09:00 +20°C° 0.1 mm 1 mps 688 mmHg 42%
    10:00 +20°C° 0 mm 2 mps 688 mmHg 40%
    11:00 +23°C° 0 mm 2 mps 688 mmHg 38%
    12:00 +24°C° 0 mm 2 mps 687 mmHg 35%
    13:00 +24°C° 0 mm 2 mps 687 mmHg 35%
    14:00 +24°C° 0 mm 2 mps 687 mmHg 34%
    15:00 +24°C° 0 mm 2 mps 686 mmHg 33%
    16:00 +23°C° 0.1 mm 2 mps 686 mmHg 38%
    17:00 +20°C° 0.1 mm 2 mps 686 mmHg 42%
    18:00 +19°C° 0.1 mm 1 mps 686 mmHg 46%
    19:00 +19°C° 0.1 mm 1 mps 686 mmHg 46%
    20:00 +18°C° 0.1 mm 1 mps 686 mmHg 47%
    21:00 +18°C° 0.1 mm 1 mps 686 mmHg 48%
    22:00 +18°C° 0.1 mm 1 mps 686 mmHg 49%
    23:00 +16°C° 0.1 mm 1 mps 686 mmHg 49%

    21 October, Sunday

    Time Temperature Precipitation Wind Pressure Humidity
    00:00 +16°C° 0.1 mm 1 mps 686 mmHg 50%
    01:00 +16°C° 0.2 mm 1 mps 686 mmHg 51%
    02:00 +16°C° 0.2 mm 1 mps 685 mmHg 53%
    03:00 +16°C° 0.2 mm 1 mps 685 mmHg 54%
    04:00 +15°C° 0.1 mm 1 mps 685 mmHg 55%
    05:00 +15°C° 0.1 mm 1 mps 685 mmHg 57%
    06:00 +15°C° 0.1 mm 1 mps 685 mmHg 58%
    07:00 +16°C° 0 mm 1 mps 685 mmHg 53%
    08:00 +18°C° 0 mm 2 mps 685 mmHg 47%
    09:00 +20°C° 0 mm 2 mps 686 mmHg 42%
    10:00 +20°C° 0.1 mm 2 mps 685 mmHg 40%
    11:00 +21°C° 0.1 mm 3 mps 685 mmHg 39%
    12:00 +22°C° 0.1 mm 3 mps 685 mmHg 37%
    13:00 +22°C° 0.3 mm 3 mps 684 mmHg 39%
    14:00 +21°C° 0.3 mm 3 mps 684 mmHg 42%
    15:00 +21°C° 0.3 mm 3 mps 684 mmHg 44%
    16:00 +19°C° 0.1 mm 3 mps 684 mmHg 49%
    17:00 +18°C° 0.1 mm 2 mps 683 mmHg 53%
    18:00 +17°C° 0.1 mm 2 mps 683 mmHg 57%
    19:00 +17°C° 0.1 mm 2 mps 683 mmHg 61%
    20:00 +16°C° 0.1 mm 2 mps 683 mmHg 64%
    21:00 +16°C° 0.1 mm 2 mps 684 mmHg 67%
    22:00 +15°C° 0 mm 1 mps 683 mmHg 70%
    23:00 +15°C° 0 mm 1 mps 683 mmHg 74%

    22 October, Monday

    Time Temperature Precipitation Wind Pressure Humidity
    00:00 +14°C° 0 mm 1 mps 683 mmHg 77%
    01:00 +14°C° 0.1 mm 1 mps 683 mmHg 77%
    02:00 +14°C° 0.1 mm 1 mps 683 mmHg 77%
    03:00 +14°C° 0.1 mm 1 mps 683 mmHg 78%
    04:00 +14°C° 0.2 mm 1 mps 683 mmHg 77%
    05:00 +14°C° 0.2 mm 1 mps 684 mmHg 76%
    06:00 +14°C° 0.2 mm 2 mps 684 mmHg 76%
    07:00 +15°C° 0.1 mm 2 mps 684 mmHg 70%
    08:00 +17°C° 0.1 mm 2 mps 685 mmHg 64%
    09:00 +18°C° 0.1 mm 3 mps 685 mmHg 59%
    10:00 +19°C° 0 mm 3 mps 685 mmHg 55%
    11:00 +20°C° 0 mm 3 mps 685 mmHg 51%
    12:00 +21°C° 0 mm 4 mps 685 mmHg 47%
    13:00 +21°C° 0.1 mm 4 mps 685 mmHg 46%
    14:00 +21°C° 0.1 mm 4 mps 684 mmHg 45%
    15:00 +21°C° 0.1 mm 4 mps 684 mmHg 44%
    16:00 +20°C° 0.1 mm 3 mps 684 mmHg 49%
    17:00 +18°C° 0.1 mm 3 mps 685 mmHg 54%
    18:00 +17°C° 0.1 mm 2 mps 685 mmHg 58%
    19:00 +16°C° 0 mm 2 mps 685 mmHg 59%
    20:00 +16°C° 0 mm 2 mps 685 mmHg 60%
    21:00 +15°C° 0 mm 2 mps 686 mmHg 60%
    22:00 +15°C° 0 mm 2 mps 686 mmHg 61%
    23:00 +15°C° 0 mm 2 mps 686 mmHg 62%

    23 October, Tuesday

    Time Temperature Precipitation Wind Pressure Humidity
    00:00 +15°C° 0 mm 2 mps 686 mmHg 62%
    01:00 +14°C° 0 mm 2 mps 686 mmHg 63%
    02:00 +14°C° 0 mm 2 mps 686 mmHg 64%
    03:00 +14°C° 0 mm 2 mps 686 mmHg 65%
    04:00 +14°C° 0 mm 2 mps 686 mmHg 66%
    05:00 +14°C° 0 mm 2 mps 686 mmHg 66%
    06:00 +13°C° 0 mm 2 mps 686 mmHg 66%
    07:00 +15°C° 0 mm 2 mps 687 mmHg 61%
    08:00 +17°C° 0 mm 3 mps 687 mmHg 56%
    09:00 +18°C° 0 mm 3 mps 687 mmHg 51%
    10:00 +19°C° 0.2 mm 3 mps 687 mmHg 50%
    11:00 +20°C° 0.2 mm 3 mps 687 mmHg 48%
    12:00 +21°C° 0.2 mm 4 mps 687 mmHg 47%
    13:00 +21°C° 0.1 mm 4 mps 687 mmHg 47%
    14:00 +21°C° 0.1 mm 4 mps 686 mmHg 46%
    15:00 +21°C° 0.1 mm 4 mps 686 mmHg 46%
    16:00 +20°C° 0.3 mm 3 mps 686 mmHg 51%
    17:00 +19°C° 0.3 mm 3 mps 686 mmHg 56%
    18:00 +17°C° 0.3 mm 3 mps 686 mmHg 62%
    19:00 +17°C° 0.1 mm 3 mps 686 mmHg 63%
    20:00 +17°C° 0.1 mm 3 mps 686 mmHg 65%
    21:00 +16°C° 0.1 mm 2 mps 686 mmHg 67%
    22:00 +16°C° 0 mm 2 mps 686 mmHg 67%
    23:00 +16°C° 0 mm 2 mps 686 mmHg 68%
    Show more